Private Wetterstation Wechselburg
Wetterdaten: Donnerstag, 06.06.2019
Datum Zeit Temp. +2m Bodentemp. Temp.+5cm Temp. Wind Windchill X Diff Temp. Feuchte +2m Feuchte +5cm Luftdruck Regen Wind Richtung Richtung Sonnenschein Taupunkt Windchill Windben
06.06.2019 00:00 20,1 C 20,2 C 19,5 C 19,6 C 18,6 C 0,0 C 75 % 77 % 1007,2 hPa 0,0 l/m 0,0 km/h (0 Bft) N-NW 337 0 min 15,5 C 18,6 C 0,0 km/h (0 Bft)
06.06.2019 00:05 20,1 C 20,2 C 19,3 C 19,6 C 18,5 C 0,0 C 75 % 77 % 1007,4 hPa 0,0 l/m 0,0 km/h (0 Bft) N-NW 337 0 min 15,5 C 18,5 C 0,0 km/h (0 Bft)
06.06.2019 00:10 19,9 C 20,2 C 19,3 C 19,4 C 18,3 C 0,0 C 76 % 78 % 1007,4 hPa 0,0 l/m 0,0 km/h (0 Bft) NW 315 0 min 15,5 C 18,3 C 0,0 km/h (0 Bft)
06.06.2019 00:15 19,8 C 20,1 C 19,1 C 19,3 C 18,2 C 0,0 C 76 % 78 % 1007,4 hPa 0,0 l/m 0,0 km/h (0 Bft) S 180 0 min 15,4 C 18,2 C 0,0 km/h (0 Bft)
06.06.2019 00:20 19,7 C 20,1 C 19,1 C 19,2 C 18,1 C 0,0 C 76 % 78 % 1007,4 hPa 0,0 l/m 0,0 km/h (0 Bft) S 180 0 min 15,3 C 18,1 C 0,0 km/h (0 Bft)
06.06.2019 00:25 19,6 C 20,2 C 19,0 C 19,1 C 18,1 C 0,0 C 77 % 79 % 1007,1 hPa 0,0 l/m 0,0 km/h (0 Bft) N-NO 22 0 min 15,5 C 18,1 C 0,0 km/h (0 Bft)
06.06.2019 00:30 19,5 C 20,1 C 18,7 C 19,0 C 18,1 C 0,0 C 77 % 79 % 1007,1 hPa 0,0 l/m 0,0 km/h (0 Bft) N-NO 22 0 min 15,4 C 18,1 C 0,0 km/h (0 Bft)
06.06.2019 00:35 19,5 C 20,1 C 18,7 C 19,0 C 18,1 C 0,0 C 77 % 80 % 1007,1 hPa 0,0 l/m 0,0 km/h (0 Bft) N-NO 22 0 min 15,4 C 18,1 C 0,0 km/h (0 Bft)
06.06.2019 00:40 19,3 C 20,1 C 18,7 C 18,9 C 18,1 C 0,0 C 78 % 80 % 1007,1 hPa 0,0 l/m 0,0 km/h (0 Bft) N-NO 22 0 min 15,4 C 18,1 C 0,0 km/h (0 Bft)
06.06.2019 00:45 19,2 C 20,1 C 18,5 C 18,8 C 18,0 C 0,0 C 78 % 80 % 1006,9 hPa 0,0 l/m 0,0 km/h (0 Bft) N-NO 22 0 min 15,3 C 18,0 C 0,0 km/h (0 Bft)
06.06.2019 00:50 19,1 C 20,1 C 18,3 C 18,7 C 18,0 C 0,0 C 78 % 80 % 1006,9 hPa 0,0 l/m 0,0 km/h (0 Bft) N-NO 22 0 min 15,2 C 18,0 C 0,0 km/h (0 Bft)
06.06.2019 00:55 19,0 C 20,1 C 18,2 C 18,7 C 18,0 C 0,0 C 78 % 80 % 1006,9 hPa 0,0 l/m 0,3 km/h (0 Bft) O-NO 67 0 min 15,1 C 18,0 C 0,0 km/h (0 Bft)
06.06.2019 01:00 18,9 C 20,0 C 18,1 C 18,6 C 18,1 C 0,0 C 79 % 81 % 1006,9 hPa 0,0 l/m 0,3 km/h (0 Bft) O-NO 67 0 min 15,2 C 18,1 C 0,0 km/h (0 Bft)
06.06.2019 01:05 18,8 C 20,0 C 18,1 C 18,6 C 18,1 C 0,0 C 79 % 81 % 1007,1 hPa 0,0 l/m 0,0 km/h (0 Bft) NO 45 0 min 15,1 C 18,1 C 0,0 km/h (0 Bft)
06.06.2019 01:10 18,9 C 20,0 C 18,2 C 18,6 C 18,0 C 0,0 C 79 % 81 % 1007,1 hPa 0,0 l/m 0,0 km/h (0 Bft) N 360 0 min 15,2 C 18,0 C 0,0 km/h (0 Bft)
06.06.2019 01:15 18,7 C 20,0 C 18,1 C 18,4 C 17,8 C 0,0 C 79 % 81 % 1007,1 hPa 0,0 l/m 0,0 km/h (0 Bft) O-NO 67 0 min 15,0 C 17,8 C 0,0 km/h (0 Bft)
06.06.2019 01:20 18,6 C 20,0 C 18,0 C 18,3 C 17,7 C 0,0 C 79 % 81 % 1007,1 hPa 0,0 l/m 0,0 km/h (0 Bft) N-NO 22 0 min 14,9 C 17,7 C 0,0 km/h (0 Bft)
06.06.2019 01:25 18,6 C 20,0 C 18,0 C 18,2 C 17,5 C 0,0 C 79 % 81 % 1006,9 hPa 0,0 l/m 0,0 km/h (0 Bft) O 90 0 min 14,9 C 17,5 C 0,0 km/h (0 Bft)
06.06.2019 01:30 18,5 C 20,0 C 17,9 C 18,1 C 17,4 C 0,0 C 79 % 81 % 1006,9 hPa 0,0 l/m 0,0 km/h (0 Bft) SO 135 0 min 14,8 C 17,4 C 0,0 km/h (0 Bft)
06.06.2019 01:35 18,4 C 20,0 C 17,9 C 18,0 C 17,2 C 0,0 C 79 % 81 % 1006,9 hPa 0,0 l/m 0,0 km/h (0 Bft) O-NO 67 0 min 14,7 C 17,2 C 0,0 km/h (0 Bft)
06.06.2019 01:40 18,3 C 20,0 C 17,8 C 17,9 C 17,1 C 0,0 C 79 % 81 % 1006,9 hPa 0,0 l/m 0,0 km/h (0 Bft) N 360 0 min 14,6 C 17,1 C 0,0 km/h (0 Bft)
06.06.2019 01:45 18,3 C 19,9 C 17,8 C 17,9 C 17,0 C 0,0 C 79 % 81 % 1006,8 hPa 0,0 l/m 0,0 km/h (0 Bft) NO 45 0 min 14,6 C 17,0 C 0,0 km/h (0 Bft)
06.06.2019 01:50 18,3 C 19,9 C 17,6 C 17,9 C 17,1 C 0,0 C 80 % 82 % 1006,8 hPa 0,0 l/m 0,0 km/h (0 Bft) NO 45 0 min 14,8 C 17,1 C 0,0 km/h (0 Bft)
06.06.2019 01:55 18,1 C 19,9 C 17,6 C 17,8 C 17,1 C 0,0 C 80 % 82 % 1006,8 hPa 0,0 l/m 0,2 km/h (0 Bft) S-SO 157 0 min 14,6 C 17,1 C 0,0 km/h (0 Bft)
06.06.2019 02:00 18,1 C 19,9 C 17,5 C 17,7 C 16,9 C 0,0 C 80 % 82 % 1006,8 hPa 0,0 l/m 0,2 km/h (0 Bft) S 180 0 min 14,6 C 16,9 C 0,0 km/h (0 Bft)
06.06.2019 02:05 17,9 C 20,0 C 17,4 C 17,4 C 16,5 C 0,0 C 80 % 83 % 1006,4 hPa 0,0 l/m 0,0 km/h (0 Bft) O-NO 67 0 min 14,4 C 16,5 C 0,0 km/h (0 Bft)
06.06.2019 02:10 17,9 C 20,0 C 17,2 C 17,4 C 16,3 C 0,0 C 80 % 83 % 1006,4 hPa 0,0 l/m 0,2 km/h (0 Bft) NO 45 0 min 14,4 C 16,3 C 2,3 km/h (1 Bft)
06.06.2019 02:15 17,6 C 20,0 C 17,1 C 17,1 C 16,2 C 0,0 C 81 % 83 % 1006,4 hPa 0,0 l/m 0,2 km/h (0 Bft) NW 315 0 min 14,3 C 16,2 C 0,0 km/h (0 Bft)
06.06.2019 02:20 17,7 C 20,0 C 17,0 C 17,2 C 16,1 C 0,0 C 81 % 84 % 1006,4 hPa 0,0 l/m 0,2 km/h (0 Bft) W-SW 247 0 min 14,4 C 16,1 C 0,0 km/h (0 Bft)
06.06.2019 02:25 17,5 C 19,9 C 17,0 C 17,0 C 16,0 C 0,0 C 81 % 84 % 1006,4 hPa 0,0 l/m 0,0 km/h (0 Bft) W-SW 247 0 min 14,2 C 16,0 C 0,0 km/h (0 Bft)
06.06.2019 02:30 17,5 C 20,0 C 16,9 C 16,9 C 15,8 C 0,0 C 81 % 84 % 1006,4 hPa 0,0 l/m 0,0 km/h (0 Bft) NW 315 0 min 14,2 C 15,8 C 0,0 km/h (0 Bft)
06.06.2019 02:35 17,3 C 20,0 C 16,8 C 16,8 C 15,8 C 0,0 C 82 % 84 % 1006,4 hPa 0,0 l/m 0,0 km/h (0 Bft) N-NO 22 0 min 14,2 C 15,8 C 0,0 km/h (0 Bft)
06.06.2019 02:40 17,2 C 20,0 C 16,7 C 16,7 C 15,7 C 0,0 C 82 % 85 % 1006,4 hPa 0,0 l/m 0,2 km/h (0 Bft) O-NO 67 0 min 14,1 C 15,7 C 2,1 km/h (1 Bft)
06.06.2019 02:45 17,2 C 19,9 C 16,7 C 16,7 C 15,8 C 0,0 C 82 % 85 % 1006,4 hPa 0,0 l/m 0,3 km/h (0 Bft) O-SO 112 0 min 14,1 C 15,8 C 0,0 km/h (0 Bft)
06.06.2019 02:50 17,2 C 20,0 C 16,6 C 16,8 C 15,9 C 0,0 C 83 % 85 % 1006,4 hPa 0,0 l/m 0,3 km/h (0 Bft) O-NO 67 0 min 14,3 C 15,9 C 0,0 km/h (0 Bft)
06.06.2019 02:55 17,0 C 19,9 C 16,5 C 16,6 C 15,8 C 0,0 C 83 % 85 % 1006,4 hPa 0,0 l/m 1,1 km/h (1 Bft) O-NO 67 0 min 14,1 C 15,8 C 3,7 km/h (1 Bft)
06.06.2019 03:00 16,8 C 19,9 C 16,3 C 16,5 C 15,8 C 0,0 C 83 % 85 % 1006,4 hPa 0,0 l/m 1,9 km/h (1 Bft) NO 45 0 min 13,9 C 15,8 C 0,0 km/h (0 Bft)
06.06.2019 03:05 16,8 C 19,9 C 16,3 C 16,5 C 15,8 C 0,0 C 83 % 85 % 1006,2 hPa 0,0 l/m 1,6 km/h (1 Bft) SW 225 0 min 13,9 C 15,8 C 0,0 km/h (0 Bft)
06.06.2019 03:10 16,6 C 19,9 C 16,2 C 16,2 C 15,4 C 0,0 C 83 % 85 % 1006,2 hPa 0,0 l/m 0,0 km/h (0 Bft) SW 225 0 min 13,7 C 15,4 C 0,0 km/h (0 Bft)
06.06.2019 03:15 16,5 C 19,9 C 16,1 C 16,0 C 15,1 C 0,0 C 83 % 86 % 1006,2 hPa 0,0 l/m 0,2 km/h (0 Bft) NO 45 0 min 13,6 C 15,1 C 1,8 km/h (1 Bft)
06.06.2019 03:20 16,4 C 19,9 C 15,9 C 16,0 C 15,1 C 0,0 C 83 % 86 % 1006,2 hPa 0,0 l/m 0,8 km/h (0 Bft) O-NO 67 0 min 13,5 C 15,1 C 0,0 km/h (0 Bft)
06.06.2019 03:25 16,3 C 19,8 C 15,9 C 15,9 C 15,1 C 0,0 C 84 % 86 % 1006,4 hPa 0,0 l/m 0,8 km/h (0 Bft) W-SW 247 0 min 13,6 C 15,1 C 0,0 km/h (0 Bft)
06.06.2019 03:30 16,3 C 19,8 C 15,9 C 15,9 C 15,0 C 0,0 C 84 % 86 % 1006,4 hPa 0,0 l/m 0,2 km/h (0 Bft) SW 225 0 min 13,6 C 15,0 C 0,0 km/h (0 Bft)
06.06.2019 03:35 16,3 C 19,8 C 15,9 C 15,8 C 14,9 C 0,0 C 84 % 86 % 1006,4 hPa 0,0 l/m 0,0 km/h (0 Bft) NW 315 0 min 13,6 C 14,9 C 0,0 km/h (0 Bft)
06.06.2019 03:40 16,1 C 19,8 C 15,9 C 15,7 C 14,8 C 0,0 C 84 % 86 % 1006,4 hPa 0,0 l/m 0,0 km/h (0 Bft) N-NW 337 0 min 13,4 C 14,8 C 0,0 km/h (0 Bft)
06.06.2019 03:45 16,0 C 19,8 C 15,8 C 15,6 C 14,8 C 0,0 C 85 % 87 % 1006,4 hPa 0,0 l/m 0,0 km/h (0 Bft) W 270 0 min 13,5 C 14,8 C 0,0 km/h (0 Bft)
06.06.2019 03:50 16,1 C 19,8 C 15,8 C 15,7 C 14,8 C 0,0 C 85 % 87 % 1006,4 hPa 0,0 l/m 0,6 km/h (0 Bft) SW 225 0 min 13,6 C 14,8 C 0,0 km/h (0 Bft)
06.06.2019 03:55 16,0 C 19,8 C 15,7 C 15,7 C 15,0 C 0,0 C 85 % 88 % 1006,4 hPa 0,0 l/m 1,1 km/h (1 Bft) NO 45 0 min 13,5 C 15,0 C 6,0 km/h (2 Bft)
06.06.2019 04:00 16,0 C 19,8 C 15,7 C 15,7 C 15,0 C 0,0 C 85 % 88 % 1006,4 hPa 0,0 l/m 1,1 km/h (1 Bft) O-NO 67 0 min 13,5 C 15,0 C 2,3 km/h (1 Bft)
06.06.2019 04:05 16,1 C 19,7 C 15,7 C 15,8 C 15,2 C 0,0 C 85 % 88 % 1006,2 hPa 0,0 l/m 1,6 km/h (1 Bft) NO 45 0 min 13,6 C 15,2 C 0,0 km/h (0 Bft)
06.06.2019 04:10 16,0 C 19,7 C 15,7 C 15,7 C 15,1 C 0,0 C 85 % 87 % 1006,2 hPa 0,0 l/m 1,0 km/h (0 Bft) S 180 0 min 13,5 C 15,1 C 0,0 km/h (0 Bft)
06.06.2019 04:15 15,9 C 19,7 C 15,5 C 15,5 C 14,8 C 0,0 C 85 % 87 % 1006,2 hPa 0,0 l/m 0,0 km/h (0 Bft) NO 45 0 min 13,4 C 14,8 C 0,0 km/h (0 Bft)
06.06.2019 04:20 15,9 C 19,6 C 15,6 C 15,5 C 14,8 C 0,0 C 85 % 88 % 1006,2 hPa 0,0 l/m 0,0 km/h (0 Bft) SW 225 0 min 13,4 C 14,8 C 0,0 km/h (0 Bft)
06.06.2019 04:25 15,7 C 19,6 C 15,5 C 15,3 C 14,5 C 0,0 C 85 % 87 % 1006,3 hPa 0,0 l/m 0,0 km/h (0 Bft) S-SW 202 0 min 13,2 C 14,5 C 0,0 km/h (0 Bft)
06.06.2019 04:30 15,6 C 19,6 C 15,4 C 15,2 C 14,4 C 0,0 C 85 % 87 % 1006,3 hPa 0,0 l/m 0,0 km/h (0 Bft) W-SW 247 0 min 13,1 C 14,4 C 0,0 km/h (0 Bft)
06.06.2019 04:35 15,6 C 19,6 C 15,3 C 15,1 C 14,2 C 0,0 C 85 % 87 % 1006,3 hPa 0,0 l/m 0,0 km/h (0 Bft) NO 45 0 min 13,1 C 14,2 C 0,0 km/h (0 Bft)
06.06.2019 04:40 15,5 C 19,6 C 15,3 C 15,1 C 14,2 C 0,0 C 86 % 87 % 1006,3 hPa 0,0 l/m 0,0 km/h (0 Bft) O-NO 67 0 min 13,2 C 14,2 C 0,0 km/h (0 Bft)
06.06.2019 04:45 15,4 C 19,6 C 15,3 C 15,0 C 14,2 C 0,0 C 86 % 87 % 1006,5 hPa 0,0 l/m 0,0 km/h (0 Bft) W 270 0 min 13,1 C 14,2 C 0,0 km/h (0 Bft)
06.06.2019 04:50 15,5 C 19,6 C 15,2 C 15,1 C 14,2 C 0,0 C 86 % 88 % 1006,5 hPa 0,0 l/m 0,2 km/h (0 Bft) O-NO 67 0 min 13,2 C 14,2 C 1,8 km/h (1 Bft)
06.06.2019 04:55 15,3 C 19,6 C 15,2 C 15,0 C 14,4 C 0,0 C 86 % 88 % 1006,5 hPa 0,0 l/m 0,2 km/h (0 Bft) O-NO 67 0 min 13,0 C 14,4 C 0,0 km/h (0 Bft)
06.06.2019 05:00 15,4 C 19,6 C 15,3 C 15,1 C 14,5 C 0,0 C 86 % 88 % 1006,5 hPa 0,0 l/m 0,2 km/h (0 Bft) N-NO 22 0 min 13,1 C 14,5 C 0,0 km/h (0 Bft)
06.06.2019 05:05 15,3 C 19,6 C 15,2 C 15,0 C 14,5 C 0,0 C 86 % 88 % 1006,4 hPa 0,0 l/m 0,0 km/h (0 Bft) N 360 0 min 13,0 C 14,5 C 0,0 km/h (0 Bft)
06.06.2019 05:10 15,3 C 19,6 C 15,3 C 15,0 C 14,5 C 0,0 C 86 % 88 % 1006,4 hPa 0,0 l/m 0,0 km/h (0 Bft) NO 45 0 min 13,0 C 14,5 C 0,0 km/h (0 Bft)
06.06.2019 05:15 15,3 C 19,5 C 15,3 C 15,0 C 14,5 C 0,0 C 86 % 88 % 1006,4 hPa 0,0 l/m 0,0 km/h (0 Bft) S-SW 202 0 min 13,0 C 14,5 C 0,0 km/h (0 Bft)
06.06.2019 05:20 15,2 C 19,5 C 15,2 C 14,9 C 14,4 C 0,0 C 86 % 88 % 1006,4 hPa 0,0 l/m 0,0 km/h (0 Bft) SW 225 0 min 12,9 C 14,4 C 0,0 km/h (0 Bft)
06.06.2019 05:25 15,2 C 19,5 C 15,2 C 14,9 C 14,2 C 0,0 C 86 % 88 % 1006,7 hPa 0,0 l/m 0,0 km/h (0 Bft) W-SW 247 0 min 12,9 C 14,2 C 0,0 km/h (0 Bft)
06.06.2019 05:30 15,1 C 19,5 C 15,1 C 14,7 C 14,0 C 0,0 C 86 % 88 % 1006,7 hPa 0,0 l/m 0,0 km/h (0 Bft) SW 225 0 min 12,8 C 14,0 C 0,0 km/h (0 Bft)
06.06.2019 05:35 15,1 C 19,5 C 15,0 C 14,7 C 13,9 C 0,0 C 86 % 88 % 1006,7 hPa 0,0 l/m 0,0 km/h (0 Bft) SW 225 0 min 12,8 C 13,9 C 0,0 km/h (0 Bft)
06.06.2019 05:40 14,9 C 19,5 C 14,9 C 14,5 C 13,8 C 0,0 C 86 % 88 % 1006,7 hPa 0,0 l/m 0,0 km/h (0 Bft) W-NW 292 0 min 12,6 C 13,8 C 0,0 km/h (0 Bft)
06.06.2019 05:45 14,9 C 19,5 C 14,9 C 14,6 C 13,9 C 0,0 C 87 % 88 % 1007,1 hPa 0,0 l/m 0,0 km/h (0 Bft) NO 45 0 min 12,8 C 13,9 C 0,0 km/h (0 Bft)
06.06.2019 05:50 14,8 C 19,5 C 14,9 C 14,5 C 14,0 C 0,0 C 87 % 88 % 1007,1 hPa 0,0 l/m 0,0 km/h (0 Bft) NW 315 0 min 12,7 C 14,0 C 0,0 km/h (0 Bft)
06.06.2019 05:55 14,8 C 19,5 C 15,0 C 14,6 C 14,2 C 0,0 C 87 % 89 % 1007,1 hPa 0,0 l/m 0,0 km/h (0 Bft) NW 315 0 min 12,7 C 14,2 C 0,0 km/h (0 Bft)
06.06.2019 06:00 14,8 C 19,5 C 15,0 C 14,6 C 14,2 C 0,0 C 87 % 89 % 1007,1 hPa 0,0 l/m 0,0 km/h (0 Bft) S 180 0 min 12,7 C 14,2 C 0,0 km/h (0 Bft)
06.06.2019 06:05 14,8 C 19,4 C 15,1 C 14,7 C 14,4 C 0,0 C 87 % 89 % 1007,1 hPa 0,0 l/m 0,0 km/h (0 Bft) W-SW 247 0 min 12,7 C 14,4 C 0,0 km/h (0 Bft)
06.06.2019 06:10 14,8 C 19,4 C 15,1 C 14,7 C 14,5 C 0,0 C 87 % 89 % 1007,1 hPa 0,0 l/m 0,0 km/h (0 Bft) SW 225 0 min 12,7 C 14,5 C 0,0 km/h (0 Bft)
06.06.2019 06:15 14,8 C 19,4 C 15,2 C 14,7 C 14,5 C 0,0 C 87 % 88 % 1007,1 hPa 0,0 l/m 0,0 km/h (0 Bft) W-SW 247 0 min 12,7 C 14,5 C 0,0 km/h (0 Bft)
06.06.2019 06:20 14,9 C 19,4 C 15,1 C 14,8 C 14,7 C 0,0 C 87 % 88 % 1007,1 hPa 0,0 l/m 0,0 km/h (0 Bft) SW 225 0 min 12,8 C 14,7 C 0,0 km/h (0 Bft)
06.06.2019 06:25 14,9 C 19,4 C 15,2 C 14,9 C 14,8 C 0,0 C 87 % 88 % 1007,1 hPa 0,0 l/m 0,0 km/h (0 Bft) W-SW 247 0 min 12,8 C 14,8 C 0,0 km/h (0 Bft)
06.06.2019 06:30 14,8 C 19,3 C 15,2 C 15,0 C 15,0 C 0,2 C 87 % 88 % 1007,1 hPa 0,0 l/m 0,0 km/h (0 Bft) W-SW 247 0 min 12,7 C 15,0 C 0,0 km/h (0 Bft)
06.06.2019 06:35 14,9 C 19,3 C 15,3 C 15,1 C 15,1 C 0,2 C 87 % 88 % 1007,1 hPa 0,0 l/m 0,0 km/h (0 Bft) SO 135 0 min 12,8 C 15,1 C 0,0 km/h (0 Bft)
06.06.2019 06:40 14,9 C 19,2 C 15,5 C 15,5 C 15,5 C 0,6 C 87 % 89 % 1007,1 hPa 0,0 l/m 0,0 km/h (0 Bft) SW 225 0 min 12,8 C 15,5 C 0,0 km/h (0 Bft)
06.06.2019 06:45 15,1 C 19,2 C 15,8 C 16,0 C 16,0 C 0,9 C 87 % 89 % 1007,2 hPa 0,0 l/m 0,0 km/h (0 Bft) W 270 0 min 13,0 C 16,0 C 0,0 km/h (0 Bft)
06.06.2019 06:50 15,1 C 19,2 C 16,3 C 16,5 C 16,5 C 1,4 C 87 % 89 % 1007,2 hPa 0,0 l/m 0,0 km/h (0 Bft) W 270 0 min 13,0 C 16,5 C 0,0 km/h (0 Bft)
06.06.2019 06:55 15,5 C 19,1 C 16,9 C 17,3 C 17,3 C 1,8 C 88 % 89 % 1007,2 hPa 0,0 l/m 0,3 km/h (0 Bft) W-SW 247 0 min 13,5 C 17,3 C 0,0 km/h (0 Bft)
06.06.2019 07:00 15,6 C 19,1 C 17,0 C 18,3 C 18,3 C 2,7 C 88 % 88 % 1007,2 hPa 0,0 l/m 0,3 km/h (0 Bft) W-NW 292 0 min 13,6 C 18,3 C 0,0 km/h (0 Bft)
06.06.2019 07:05 15,9 C 19,1 C 17,2 C 21,2 C 21,2 C 5,3 C 87 % 88 % 1007,4 hPa 0,0 l/m 0,2 km/h (0 Bft) SW 225 5 min 13,7 C 21,2 C 0,0 km/h (0 Bft)
06.06.2019 07:10 16,1 C 19,1 C 17,4 C 21,9 C 21,9 C 5,8 C 87 % 87 % 1007,4 hPa 0,0 l/m 0,2 km/h (0 Bft) SW 225 5 min 13,9 C 21,9 C 0,0 km/h (0 Bft)
06.06.2019 07:15 16,3 C 19,1 C 17,7 C 23,5 C 23,5 C 7,2 C 87 % 87 % 1007,4 hPa 0,0 l/m 0,0 km/h (0 Bft) W-SW 247 5 min 14,1 C 23,5 C 0,0 km/h (0 Bft)
06.06.2019 07:20 16,5 C 19,0 C 18,1 C 26,0 C 26,0 C 9,5 C 87 % 86 % 1007,4 hPa 0,0 l/m 0,0 km/h (0 Bft) W-NW 292 5 min 14,3 C 26,0 C 0,0 km/h (0 Bft)
06.06.2019 07:25 17,1 C 19,0 C 18,3 C 27,6 C 27,6 C 10,5 C 87 % 85 % 1007,7 hPa 0,0 l/m 0,0 km/h (0 Bft) SW 225 5 min 14,9 C 27,6 C 0,0 km/h (0 Bft)
06.06.2019 07:30 17,7 C 18,9 C 18,5 C 28,4 C 28,4 C 10,7 C 87 % 84 % 1007,7 hPa 0,0 l/m 0,0 km/h (0 Bft) O-NO 67 5 min 15,5 C 28,4 C 0,0 km/h (0 Bft)
06.06.2019 07:35 18,9 C 18,9 C 19,2 C 27,6 C 27,6 C 8,7 C 87 % 84 % 1007,7 hPa 0,0 l/m 1,3 km/h (1 Bft) N-NO 22 5 min 16,7 C 27,6 C 6,1 km/h (2 Bft)
06.06.2019 07:40 19,7 C 18,9 C 19,4 C 27,6 C 27,6 C 7,9 C 87 % 83 % 1007,7 hPa 0,0 l/m 1,6 km/h (1 Bft) O-NO 67 5 min 17,5 C 27,6 C 2,9 km/h (1 Bft)
06.06.2019 07:45 20,3 C 18,9 C 19,5 C 27,6 C 27,6 C 7,3 C 85 % 83 % 1007,3 hPa 0,0 l/m 2,3 km/h (1 Bft) O-NO 67 5 min 17,7 C 27,6 C 2,9 km/h (1 Bft)
06.06.2019 07:50 20,4 C 18,9 C 19,8 C 27,7 C 27,7 C 7,3 C 83 % 81 % 1007,3 hPa 0,0 l/m 2,4 km/h (1 Bft) W 270 5 min 17,4 C 27,7 C 0,0 km/h (0 Bft)
06.06.2019 07:55 20,9 C 18,9 C 20,1 C 28,5 C 28,5 C 7,6 C 81 % 81 % 1007,3 hPa 0,0 l/m 1,9 km/h (1 Bft) SO 135 5 min 17,5 C 28,5 C 7,2 km/h (2 Bft)
06.06.2019 08:00 21,2 C 18,9 C 20,3 C 28,8 C 28,8 C 7,6 C 81 % 80 % 1007,3 hPa 0,0 l/m 1,6 km/h (1 Bft) O-NO 67 5 min 17,8 C 28,8 C 1,9 km/h (1 Bft)
06.06.2019 08:05 21,6 C 18,9 C 20,5 C 30,4 C 30,4 C 8,8 C 80 % 80 % 1007,7 hPa 0,0 l/m 0,8 km/h (0 Bft) NO 45 5 min 18,0 C 30,4 C 0,0 km/h (0 Bft)
06.06.2019 08:10 22,1 C 18,9 C 20,7 C 31,3 C 31,3 C 9,2 C 79 % 80 % 1007,7 hPa 0,0 l/m 0,2 km/h (0 Bft) W-NW 292 5 min 18,3 C 31,3 C 0,0 km/h (0 Bft)
06.06.2019 08:15 22,5 C 18,9 C 21,1 C 31,9 C 31,9 C 9,4 C 77 % 80 % 1007,7 hPa 0,0 l/m 0,6 km/h (0 Bft) N 360 5 min 18,3 C 31,9 C 0,0 km/h (0 Bft)
06.06.2019 08:20 22,9 C 18,9 C 21,4 C 32,2 C 32,2 C 9,3 C 75 % 78 % 1007,7 hPa 0,0 l/m 1,3 km/h (1 Bft) O-SO 112 5 min 18,2 C 32,2 C 2,3 km/h (1 Bft)
06.06.2019 08:25 23,3 C 18,8 C 21,7 C 32,8 C 32,8 C 9,5 C 75 % 79 % 1007,8 hPa 0,0 l/m 1,1 km/h (1 Bft) S 180 5 min 18,6 C 32,8 C 1,6 km/h (1 Bft)
06.06.2019 08:30 23,7 C 18,8 C 21,9 C 32,5 C 32,5 C 8,8 C 73 % 76 % 1007,8 hPa 0,0 l/m 1,0 km/h (0 Bft) N 360 5 min 18,6 C 32,5 C 0,0 km/h (0 Bft)
06.06.2019 08:35 23,9 C 18,8 C 22,0 C 30,3 C 30,3 C 6,4 C 72 % 74 % 1007,8 hPa 0,0 l/m 1,0 km/h (0 Bft) O-NO 67 5 min 18,5 C 30,3 C 0,0 km/h (0 Bft)
06.06.2019 08:40 23,9 C 18,9 C 21,9 C 28,9 C 28,9 C 5,0 C 72 % 75 % 1007,8 hPa 0,0 l/m 0,6 km/h (0 Bft) O-NO 67 5 min 18,5 C 28,9 C 0,0 km/h (0 Bft)
06.06.2019 08:45 23,7 C 18,9 C 21,9 C 27,0 C 27,0 C 3,3 C 71 % 76 % 1008,4 hPa 0,0 l/m 1,0 km/h (0 Bft) O-NO 67 5 min 18,1 C 27,0 C 2,3 km/h (1 Bft)
06.06.2019 08:50 23,5 C 18,9 C 21,9 C 26,3 C 26,3 C 2,8 C 71 % 76 % 1008,4 hPa 0,0 l/m 1,0 km/h (0 Bft) N-NO 22 0 min 17,9 C 26,3 C 0,0 km/h (0 Bft)
06.06.2019 08:55 23,5 C 18,9 C 21,9 C 25,8 C 25,8 C 2,3 C 71 % 76 % 1008,4 hPa 0,0 l/m 0,2 km/h (0 Bft) O-SO 112 0 min 17,9 C 25,8 C 0,0 km/h (0 Bft)
06.06.2019 09:00 23,5 C 18,9 C 21,9 C 25,6 C 25,6 C 2,1 C 71 % 76 % 1008,4 hPa 0,0 l/m 0,3 km/h (0 Bft) SO 135 0 min 17,9 C 25,6 C 0,0 km/h (0 Bft)
06.06.2019 09:05 23,5 C 18,9 C 21,9 C 25,4 C 25,4 C 1,9 C 71 % 76 % 1008,1 hPa 0,0 l/m 1,0 km/h (0 Bft) NO 45 0 min 17,9 C 25,4 C 3,9 km/h (1 Bft)
06.06.2019 09:10 23,5 C 18,9 C 22,1 C 25,2 C 25,2 C 1,7 C 71 % 76 % 1008,1 hPa 0,0 l/m 1,1 km/h (1 Bft) S-SW 202 0 min 17,9 C 25,2 C 2,9 km/h (1 Bft)
06.06.2019 09:15 23,5 C 18,9 C 22,1 C 25,3 C 25,3 C 1,8 C 71 % 75 % 1008,1 hPa 0,0 l/m 0,8 km/h (0 Bft) N-NO 22 0 min 17,9 C 25,3 C 0,0 km/h (0 Bft)
06.06.2019 09:20 23,7 C 18,9 C 22,2 C 25,4 C 25,4 C 1,7 C 72 % 75 % 1008,1 hPa 0,0 l/m 0,2 km/h (0 Bft) NW 315 0 min 18,3 C 25,4 C 0,0 km/h (0 Bft)
06.06.2019 09:25 23,9 C 18,9 C 22,2 C 25,6 C 25,6 C 1,7 C 71 % 75 % 1008,3 hPa 0,0 l/m 0,0 km/h (0 Bft) O-NO 67 0 min 18,3 C 25,6 C 0,0 km/h (0 Bft)
06.06.2019 09:30 23,9 C 18,9 C 22,1 C 25,8 C 25,8 C 1,9 C 71 % 76 % 1008,3 hPa 0,0 l/m 0,0 km/h (0 Bft) SW 225 0 min 18,3 C 25,8 C 0,0 km/h (0 Bft)
06.06.2019 09:35 24,1 C 18,9 C 22,2 C 26,0 C 26,0 C 1,9 C 70 % 76 % 1008,3 hPa 0,0 l/m 0,0 km/h (0 Bft) SW 225 0 min 18,3 C 26,0 C 0,0 km/h (0 Bft)
06.06.2019 09:40 24,3 C 18,9 C 22,2 C 26,0 C 26,0 C 1,7 C 70 % 77 % 1008,3 hPa 0,0 l/m 0,0 km/h (0 Bft) S 180 0 min 18,5 C 26,0 C 0,0 km/h (0 Bft)
06.06.2019 09:45 24,3 C 18,9 C 22,2 C 26,0 C 26,0 C 1,7 C 70 % 77 % 1008,2 hPa 0,0 l/m 0,5 km/h (0 Bft) SO 135 0 min 18,5 C 26,0 C 2,3 km/h (1 Bft)
06.06.2019 09:50 24,3 C 18,9 C 22,3 C 26,0 C 26,0 C 1,7 C 70 % 77 % 1008,2 hPa 0,0 l/m 0,8 km/h (0 Bft) SW 225 0 min 18,5 C 26,0 C 3,4 km/h (1 Bft)
06.06.2019 09:55 24,5 C 19,0 C 22,2 C 26,1 C 26,1 C 1,6 C 69 % 77 % 1008,2 hPa 0,0 l/m 1,6 km/h (1 Bft) S 180 0 min 18,4 C 26,1 C 4,7 km/h (1 Bft)
06.06.2019 10:00 24,4 C 19,0 C 22,3 C 26,2 C 26,2 C 1,8 C 69 % 77 % 1008,2 hPa 0,0 l/m 1,4 km/h (1 Bft) S-SO 157 0 min 18,3 C 26,2 C 0,0 km/h (0 Bft)
06.06.2019 10:05 24,5 C 19,0 C 22,3 C 27,1 C 27,1 C 2,6 C 69 % 77 % 1008,5 hPa 0,0 l/m 1,0 km/h (0 Bft) O-NO 67 0 min 18,4 C 27,1 C 0,0 km/h (0 Bft)
06.06.2019 10:10 24,5 C 19,0 C 22,4 C 27,5 C 27,5 C 3,0 C 69 % 77 % 1008,5 hPa 0,0 l/m 1,0 km/h (0 Bft) W-NW 292 0 min 18,4 C 27,5 C 2,3 km/h (1 Bft)
06.06.2019 10:15 24,5 C 19,0 C 22,5 C 28,8 C 28,8 C 4,3 C 68 % 77 % 1008,5 hPa 0,0 l/m 1,0 km/h (0 Bft) S 180 5 min 18,2 C 28,8 C 0,0 km/h (0 Bft)
06.06.2019 10:20 24,7 C 19,0 C 22,6 C 30,7 C 30,7 C 6,0 C 69 % 77 % 1008,5 hPa 0,0 l/m 0,6 km/h (0 Bft) O-SO 112 5 min 18,6 C 30,7 C 0,0 km/h (0 Bft)
06.06.2019 10:25 24,9 C 19,0 C 22,8 C 33,3 C 33,3 C 8,4 C 69 % 76 % 1008,6 hPa 0,0 l/m 0,3 km/h (0 Bft) W-SW 247 5 min 18,8 C 33,3 C 0,0 km/h (0 Bft)
06.06.2019 10:30 25,1 C 19,0 C 23,0 C 34,3 C 34,3 C 9,2 C 68 % 76 % 1008,6 hPa 0,0 l/m 0,5 km/h (0 Bft) S-SO 157 5 min 18,8 C 34,3 C 4,5 km/h (1 Bft)
06.06.2019 10:35 25,1 C 19,0 C 23,1 C 34,6 C 34,6 C 9,5 C 68 % 75 % 1008,6 hPa 0,0 l/m 0,6 km/h (0 Bft) S-SW 202 5 min 18,8 C 34,6 C 0,0 km/h (0 Bft)
06.06.2019 10:40 25,3 C 19,0 C 23,2 C 35,1 C 35,1 C 9,8 C 67 % 74 % 1008,6 hPa 0,0 l/m 1,0 km/h (0 Bft) S 180 5 min 18,7 C 35,1 C 2,9 km/h (1 Bft)
06.06.2019 10:45 25,3 C 19,1 C 23,3 C 34,8 C 34,8 C 9,5 C 65 % 71 % 1008,8 hPa 0,0 l/m 1,0 km/h (0 Bft) S-SO 157 5 min 18,2 C 34,8 C 0,0 km/h (0 Bft)
06.06.2019 10:50 25,3 C 19,1 C 23,4 C 34,7 C 34,7 C 9,4 C 64 % 71 % 1008,8 hPa 0,0 l/m 1,0 km/h (0 Bft) W-NW 292 5 min 18,0 C 34,7 C 2,9 km/h (1 Bft)
06.06.2019 10:55 25,4 C 19,1 C 23,4 C 34,7 C 34,7 C 9,3 C 63 % 71 % 1008,8 hPa 0,0 l/m 0,8 km/h (0 Bft) S 180 5 min 17,8 C 34,7 C 3,9 km/h (1 Bft)
06.06.2019 11:00 25,4 C 19,1 C 23,6 C 34,4 C 34,4 C 9,0 C 63 % 71 % 1008,8 hPa 0,0 l/m 1,4 km/h (1 Bft) SW 225 5 min 17,8 C 34,4 C 2,3 km/h (1 Bft)
06.06.2019 11:05 25,7 C 19,1 C 23,6 C 34,2 C 34,2 C 8,5 C 64 % 70 % 1009,0 hPa 0,0 l/m 1,8 km/h (1 Bft) S-SO 157 5 min 18,4 C 34,2 C 3,2 km/h (1 Bft)
06.06.2019 11:10 25,7 C 19,1 C 23,7 C 33,6 C 33,6 C 7,9 C 63 % 69 % 1009,0 hPa 0,0 l/m 2,3 km/h (1 Bft) S 180 5 min 18,1 C 33,6 C 4,0 km/h (1 Bft)
06.06.2019 11:15 25,7 C 19,1 C 23,8 C 32,0 C 32,0 C 6,3 C 63 % 68 % 1009,0 hPa 0,0 l/m 3,4 km/h (1 Bft) SW 225 5 min 18,1 C 32,0 C 11,1 km/h (2 Bft)
06.06.2019 11:20 25,5 C 19,1 C 23,9 C 31,9 C 31,9 C 6,4 C 62 % 67 % 1009,0 hPa 0,0 l/m 3,9 km/h (1 Bft) SW 225 5 min 17,7 C 31,9 C 4,2 km/h (1 Bft)
06.06.2019 11:25 25,5 C 19,1 C 23,9 C 31,8 C 31,8 C 6,3 C 62 % 66 % 1009,4 hPa 0,0 l/m 3,9 km/h (1 Bft) SW 225 5 min 17,7 C 31,8 C 11,7 km/h (2 Bft)
06.06.2019 11:30 25,5 C 19,2 C 23,9 C 32,0 C 32,0 C 6,5 C 62 % 67 % 1009,4 hPa 0,0 l/m 3,4 km/h (1 Bft) SO 135 5 min 17,7 C 32,0 C 1,9 km/h (1 Bft)
06.06.2019 11:35 25,3 C 19,1 C 24,0 C 31,9 C 31,9 C 6,6 C 62 % 66 % 1009,4 hPa 0,0 l/m 3,2 km/h (1 Bft) S 180 5 min 17,5 C 31,9 C 3,4 km/h (1 Bft)
06.06.2019 11:40 25,3 C 19,1 C 24,0 C 32,1 C 32,1 C 6,8 C 62 % 66 % 1009,4 hPa 0,0 l/m 2,7 km/h (1 Bft) S-SO 157 5 min 17,5 C 32,1 C 1,8 km/h (1 Bft)
06.06.2019 11:45 25,4 C 19,1 C 24,2 C 32,4 C 32,4 C 7,0 C 63 % 66 % 1009,7 hPa 0,0 l/m 1,9 km/h (1 Bft) SO 135 5 min 17,8 C 32,4 C 4,0 km/h (1 Bft)
06.06.2019 11:50 25,4 C 19,1 C 24,3 C 32,8 C 32,8 C 7,4 C 62 % 67 % 1009,7 hPa 0,0 l/m 1,8 km/h (1 Bft) SW 225 5 min 17,6 C 32,8 C 0,0 km/h (0 Bft)
06.06.2019 11:55 25,6 C 19,1 C 24,4 C 32,0 C 32,0 C 6,4 C 62 % 67 % 1009,7 hPa 0,0 l/m 1,8 km/h (1 Bft) S 180 5 min 17,8 C 32,0 C 1,8 km/h (1 Bft)
06.06.2019 12:00 25,7 C 19,1 C 24,5 C 32,2 C 32,2 C 6,5 C 63 % 67 % 1009,7 hPa 0,0 l/m 1,4 km/h (1 Bft) SW 225 5 min 18,1 C 32,2 C 0,0 km/h (0 Bft)
06.06.2019 12:05 25,7 C 19,1 C 24,5 C 32,4 C 32,4 C 6,7 C 62 % 66 % 1009,9 hPa 0,0 l/m 1,6 km/h (1 Bft) W-NW 292 5 min 17,9 C 32,4 C 4,0 km/h (1 Bft)
06.06.2019 12:10 25,8 C 19,1 C 24,9 C 32,1 C 32,1 C 6,3 C 62 % 66 % 1009,9 hPa 0,0 l/m 2,1 km/h (1 Bft) S 180 5 min 18,0 C 32,1 C 5,0 km/h (1 Bft)
06.06.2019 12:15 26,0 C 19,1 C 24,9 C 31,5 C 31,5 C 5,5 C 61 % 65 % 1009,9 hPa 0,0 l/m 2,3 km/h (1 Bft) SW 225 5 min 17,9 C 31,5 C 3,2 km/h (1 Bft)
06.06.2019 12:20 25,9 C 19,1 C 24,8 C 31,0 C 31,0 C 5,1 C 61 % 64 % 1009,9 hPa 0,0 l/m 2,3 km/h (1 Bft) W-SW 247 5 min 17,8 C 31,0 C 2,9 km/h (1 Bft)
06.06.2019 12:25 25,8 C 19,1 C 24,7 C 30,1 C 30,1 C 4,3 C 61 % 65 % 1010,1 hPa 0,0 l/m 1,6 km/h (1 Bft) S-SW 202 5 min 17,7 C 30,1 C 2,3 km/h (1 Bft)
06.06.2019 12:30 25,8 C 19,3 C 24,6 C 29,6 C 29,6 C 3,8 C 61 % 64 % 1010,1 hPa 0,0 l/m 1,4 km/h (1 Bft) NW 315 5 min 17,7 C 29,6 C 1,9 km/h (1 Bft)
06.06.2019 12:35 25,7 C 19,3 C 24,6 C 29,1 C 29,1 C 3,4 C 61 % 64 % 1010,1 hPa 0,0 l/m 1,8 km/h (1 Bft) W-SW 247 5 min 17,6 C 29,1 C 2,1 km/h (1 Bft)
06.06.2019 12:40 25,6 C 19,3 C 24,7 C 29,0 C 29,0 C 3,4 C 62 % 64 % 1010,1 hPa 0,0 l/m 2,4 km/h (1 Bft) W-SW 247 5 min 17,8 C 29,0 C 3,2 km/h (1 Bft)
06.06.2019 12:45 25,8 C 19,3 C 24,8 C 29,4 C 29,4 C 3,6 C 62 % 64 % 1010,2 hPa 0,0 l/m 3,1 km/h (1 Bft) SW 225 5 min 18,0 C 29,4 C 3,9 km/h (1 Bft)
06.06.2019 12:50 26,0 C 19,2 C 25,3 C 31,0 C 31,0 C 5,0 C 62 % 64 % 1010,2 hPa 0,0 l/m 3,1 km/h (1 Bft) O-NO 67 5 min 18,1 C 31,0 C 4,8 km/h (1 Bft)
06.06.2019 12:55 26,5 C 19,2 C 25,7 C 32,1 C 32,1 C 5,6 C 60 % 61 % 1010,2 hPa 0,0 l/m 3,4 km/h (1 Bft) S 180 5 min 18,1 C 32,1 C 13,7 km/h (3 Bft)
06.06.2019 13:00 26,6 C 19,2 C 26,0 C 32,5 C 32,5 C 5,9 C 59 % 61 % 1010,2 hPa 0,0 l/m 3,7 km/h (1 Bft) W-SW 247 5 min 17,9 C 32,5 C 6,3 km/h (2 Bft)
06.06.2019 13:05 26,7 C 19,2 C 26,1 C 32,4 C 32,4 C 5,7 C 58 % 60 % 1010,4 hPa 0,0 l/m 3,9 km/h (1 Bft) SW 225 5 min 17,7 C 32,4 C 5,6 km/h (1 Bft)
06.06.2019 13:10 26,7 C 19,2 C 26,1 C 32,6 C 32,6 C 5,9 C 58 % 59 % 1010,4 hPa 0,0 l/m 4,0 km/h (1 Bft) W-SW 247 5 min 17,7 C 32,6 C 4,8 km/h (1 Bft)
06.06.2019 13:15 26,8 C 19,2 C 26,3 C 32,5 C 32,5 C 5,7 C 57 % 58 % 1010,4 hPa 0,0 l/m 4,5 km/h (1 Bft) SO 135 5 min 17,6 C 32,5 C 18,2 km/h (3 Bft)
06.06.2019 13:20 26,7 C 19,3 C 26,3 C 32,4 C 32,4 C 5,7 C 56 % 57 % 1010,4 hPa 0,0 l/m 5,0 km/h (1 Bft) SW 225 5 min 17,2 C 32,4 C 12,7 km/h (3 Bft)
06.06.2019 13:25 26,6 C 19,3 C 26,3 C 32,3 C 32,3 C 5,7 C 56 % 57 % 1010,2 hPa 0,0 l/m 4,7 km/h (1 Bft) S-SO 157 5 min 17,1 C 32,3 C 3,5 km/h (1 Bft)
06.06.2019 13:30 26,7 C 19,3 C 26,2 C 32,2 C 32,2 C 5,5 C 56 % 56 % 1010,2 hPa 0,0 l/m 3,4 km/h (1 Bft) S 180 5 min 17,2 C 32,2 C 0,0 km/h (0 Bft)
06.06.2019 13:35 26,1 C 19,3 C 25,7 C 31,0 C 31,0 C 4,9 C 55 % 56 % 1010,2 hPa 0,0 l/m 3,5 km/h (1 Bft) SO 135 5 min 16,3 C 31,0 C 6,0 km/h (2 Bft)
06.06.2019 13:40 25,9 C 19,3 C 25,5 C 30,2 C 30,2 C 4,3 C 56 % 57 % 1010,2 hPa 0,0 l/m 3,4 km/h (1 Bft) S 180 5 min 16,4 C 30,2 C 4,7 km/h (1 Bft)
06.06.2019 13:45 25,7 C 19,4 C 25,5 C 29,9 C 29,9 C 4,2 C 58 % 58 % 1010,7 hPa 0,0 l/m 3,7 km/h (1 Bft) NW 315 5 min 16,8 C 29,9 C 9,0 km/h (2 Bft)
06.06.2019 13:50 25,5 C 19,4 C 25,2 C 29,2 C 29,2 C 3,7 C 58 % 58 % 1010,7 hPa 0,0 l/m 4,5 km/h (1 Bft) NW 315 5 min 16,6 C 29,2 C 5,3 km/h (1 Bft)
06.06.2019 13:55 25,1 C 19,4 C 24,9 C 28,2 C 28,2 C 3,1 C 60 % 59 % 1010,7 hPa 0,0 l/m 4,0 km/h (1 Bft) S-SO 157 0 min 16,8 C 28,2 C 3,2 km/h (1 Bft)
06.06.2019 14:00 25,0 C 19,4 C 24,7 C 27,9 C 27,9 C 2,9 C 60 % 61 % 1010,7 hPa 0,0 l/m 3,5 km/h (1 Bft) W-SW 247 0 min 16,7 C 27,9 C 2,1 km/h (1 Bft)
06.06.2019 14:05 24,9 C 19,4 C 24,5 C 27,3 C 27,3 C 2,4 C 61 % 61 % 1011,0 hPa 0,0 l/m 2,6 km/h (1 Bft) S 180 0 min 16,8 C 27,3 C 7,6 km/h (2 Bft)
06.06.2019 14:10 24,5 C 19,4 C 24,1 C 26,9 C 26,9 C 2,4 C 61 % 62 % 1011,0 hPa 0,0 l/m 2,4 km/h (1 Bft) S 180 0 min 16,5 C 26,9 C 4,2 km/h (1 Bft)
06.06.2019 14:15 24,3 C 19,4 C 24,0 C 26,4 C 26,4 C 2,1 C 62 % 62 % 1011,0 hPa 0,0 l/m 3,2 km/h (1 Bft) S-SO 157 0 min 16,5 C 26,4 C 2,9 km/h (1 Bft)
06.06.2019 14:20 24,1 C 19,4 C 23,9 C 26,3 C 26,3 C 2,2 C 62 % 63 % 1011,0 hPa 0,0 l/m 3,1 km/h (1 Bft) S 180 0 min 16,4 C 26,3 C 1,9 km/h (1 Bft)
06.06.2019 14:25 24,0 C 19,4 C 23,9 C 26,5 C 26,5 C 2,5 C 63 % 64 % 1011,0 hPa 0,0 l/m 2,6 km/h (1 Bft) SW 225 0 min 16,5 C 26,5 C 3,7 km/h (1 Bft)
06.06.2019 14:30 24,1 C 19,4 C 23,9 C 26,5 C 26,5 C 2,4 C 63 % 63 % 1011,0 hPa 0,0 l/m 3,1 km/h (1 Bft) S 180 0 min 16,6 C 26,5 C 5,0 km/h (1 Bft)
06.06.2019 14:35 23,9 C 19,4 C 23,7 C 26,2 C 26,2 C 2,3 C 63 % 64 % 1011,0 hPa 0,0 l/m 3,4 km/h (1 Bft) W-SW 247 0 min 16,4 C 26,2 C 1,6 km/h (1 Bft)
06.06.2019 14:40 23,9 C 19,4 C 23,7 C 26,4 C 26,4 C 2,5 C 64 % 64 % 1011,0 hPa 0,0 l/m 3,1 km/h (1 Bft) W-SW 247 0 min 16,7 C 26,4 C 3,9 km/h (1 Bft)
06.06.2019 14:45 23,8 C 19,4 C 23,8 C 26,4 C 26,4 C 2,6 C 63 % 63 % 1011,4 hPa 0,0 l/m 2,9 km/h (1 Bft) W 270 0 min 16,3 C 26,4 C 1,9 km/h (1 Bft)
06.06.2019 14:50 23,9 C 19,4 C 23,7 C 26,6 C 26,6 C 2,7 C 64 % 64 % 1011,4 hPa 0,0 l/m 2,9 km/h (1 Bft) NO 45 0 min 16,7 C 26,6 C 6,8 km/h (2 Bft)
06.06.2019 14:55 23,9 C 19,4 C 23,5 C 26,3 C 26,3 C 2,4 C 63 % 65 % 1011,4 hPa 0,0 l/m 2,4 km/h (1 Bft) W 270 0 min 16,4 C 26,3 C 3,2 km/h (1 Bft)
06.06.2019 15:00 23,8 C 19,4 C 23,5 C 26,2 C 26,2 C 2,4 C 63 % 64 % 1011,4 hPa 0,0 l/m 2,3 km/h (1 Bft) O 90 0 min 16,3 C 26,2 C 3,4 km/h (1 Bft)
06.06.2019 15:05 23,9 C 19,4 C 23,5 C 26,2 C 26,2 C 2,3 C 63 % 64 % 1011,4 hPa 0,0 l/m 2,6 km/h (1 Bft) W-SW 247 0 min 16,4 C 26,2 C 6,1 km/h (2 Bft)
06.06.2019 15:10 23,8 C 19,4 C 23,7 C 26,3 C 26,3 C 2,5 C 64 % 64 % 1011,4 hPa 0,0 l/m 2,9 km/h (1 Bft) SW 225 0 min 16,6 C 26,3 C 2,4 km/h (1 Bft)
06.06.2019 15:15 23,9 C 19,4 C 23,7 C 26,8 C 26,8 C 2,9 C 64 % 64 % 1011,4 hPa 0,0 l/m 2,9 km/h (1 Bft) W-SW 247 0 min 16,7 C 26,8 C 4,3 km/h (1 Bft)
06.06.2019 15:20 23,9 C 19,4 C 23,7 C 26,9 C 26,9 C 3,0 C 64 % 64 % 1011,4 hPa 0,0 l/m 2,6 km/h (1 Bft) S-SW 202 0 min 16,7 C 26,9 C 0,0 km/h (0 Bft)
06.06.2019 15:25 23,6 C 19,4 C 23,5 C 26,3 C 26,3 C 2,7 C 63 % 64 % 1011,8 hPa 0,0 l/m 2,7 km/h (1 Bft) NO 45 0 min 16,1 C 26,3 C 1,8 km/h (1 Bft)
06.06.2019 15:30 23,3 C 19,4 C 23,1 C 25,6 C 25,6 C 2,3 C 64 % 65 % 1011,8 hPa 0,0 l/m 2,9 km/h (1 Bft) SO 135 0 min 16,1 C 25,6 C 4,3 km/h (1 Bft)
06.06.2019 15:35 22,8 C 19,4 C 22,8 C 24,7 C 24,7 C 1,9 C 65 % 65 % 1011,8 hPa 0,0 l/m 3,7 km/h (1 Bft) S 180 0 min 15,9 C 24,7 C 6,3 km/h (2 Bft)
06.06.2019 15:40 22,6 C 19,4 C 22,7 C 24,4 C 24,4 C 1,8 C 66 % 66 % 1011,8 hPa 0,0 l/m 4,0 km/h (1 Bft) S 180 0 min 15,9 C 24,4 C 4,0 km/h (1 Bft)
06.06.2019 15:45 22,2 C 19,4 C 22,5 C 24,1 C 24,1 C 1,9 C 67 % 66 % 1012,1 hPa 0,0 l/m 4,0 km/h (1 Bft) N-NO 22 0 min 15,8 C 24,1 C 9,2 km/h (2 Bft)
06.06.2019 15:50 22,3 C 19,4 C 22,5 C 24,1 C 24,1 C 1,8 C 68 % 67 % 1012,1 hPa 0,0 l/m 3,9 km/h (1 Bft) S 180 0 min 16,1 C 24,1 C 3,9 km/h (1 Bft)
06.06.2019 15:55 22,0 C 19,4 C 22,4 C 24,3 C 24,3 C 2,3 C 68 % 67 % 1012,1 hPa 0,0 l/m 3,5 km/h (1 Bft) S 180 0 min 15,8 C 24,3 C 3,5 km/h (1 Bft)
06.06.2019 16:00 22,1 C 19,4 C 22,3 C 24,3 C 24,3 C 2,2 C 69 % 67 % 1012,1 hPa 0,0 l/m 3,4 km/h (1 Bft) W-SW 247 0 min 16,1 C 24,3 C 8,9 km/h (2 Bft)
06.06.2019 16:05 21,8 C 19,4 C 22,1 C 23,8 C 23,8 C 2,0 C 68 % 67 % 1012,6 hPa 0,0 l/m 3,9 km/h (1 Bft) W 270 0 min 15,6 C 23,8 C 19,2 km/h (3 Bft)
06.06.2019 16:10 21,5 C 19,3 C 21,6 C 23,2 C 23,2 C 1,7 C 68 % 67 % 1012,6 hPa 0,0 l/m 3,7 km/h (1 Bft) S-SO 157 0 min 15,3 C 23,2 C 5,8 km/h (2 Bft)
06.06.2019 16:15 20,9 C 19,4 C 21,1 C 22,2 C 22,2 C 1,3 C 68 % 67 % 1012,6 hPa 0,0 l/m 4,0 km/h (1 Bft) W-SW 247 0 min 14,8 C 22,2 C 6,4 km/h (2 Bft)
06.06.2019 16:20 20,6 C 19,4 C 20,7 C 21,5 C 21,5 C 0,9 C 68 % 67 % 1012,6 hPa 0,0 l/m 4,5 km/h (1 Bft) S 180 0 min 14,5 C 21,5 C 2,1 km/h (1 Bft)
06.06.2019 16:25 20,1 C 19,4 C 20,5 C 20,6 C 20,6 C 0,5 C 69 % 67 % 1013,2 hPa 0,0 l/m 4,0 km/h (1 Bft) S-SW 202 0 min 14,2 C 20,6 C 4,0 km/h (1 Bft)
06.06.2019 16:30 19,9 C 19,4 C 20,1 C 20,2 C 20,2 C 0,3 C 69 % 68 % 1013,2 hPa 0,0 l/m 4,2 km/h (1 Bft) S-SO 157 0 min 14,0 C 20,2 C 3,5 km/h (1 Bft)
06.06.2019 16:35 19,5 C 19,4 C 19,8 C 19,7 C 19,7 C 0,2 C 70 % 69 % 1013,2 hPa 0,0 l/m 4,7 km/h (1 Bft) S-SW 202 0 min 13,9 C 19,7 C 4,0 km/h (1 Bft)
06.06.2019 16:40 19,4 C 19,4 C 19,6 C 19,4 C 19,3 C 0,0 C 71 % 70 % 1013,2 hPa 0,0 l/m 4,5 km/h (1 Bft) W-SW 247 0 min 14,0 C 19,3 C 5,1 km/h (1 Bft)
06.06.2019 16:45 19,0 C 19,4 C 19,4 C 18,9 C 18,7 C 0,0 C 72 % 71 % 1013,6 hPa 0,0 l/m 4,0 km/h (1 Bft) W-SW 247 0 min 13,8 C 18,7 C 6,1 km/h (2 Bft)
06.06.2019 16:50 18,7 C 19,5 C 18,8 C 18,5 C 18,2 C 0,0 C 74 % 74 % 1013,6 hPa 0,0 l/m 3,7 km/h (1 Bft) SO 135 0 min 14,0 C 18,2 C 6,4 km/h (2 Bft)
06.06.2019 16:55 18,0 C 19,6 C 18,3 C 17,8 C 17,4 C 0,0 C 76 % 76 % 1013,6 hPa 0,0 l/m 3,5 km/h (1 Bft) S 180 0 min 13,7 C 17,4 C 4,7 km/h (1 Bft)
06.06.2019 17:00 17,6 C 19,6 C 18,2 C 17,4 C 17,1 C 0,0 C 77 % 77 % 1013,6 hPa 0,0 l/m 3,5 km/h (1 Bft) SW 225 0 min 13,5 C 17,1 C 2,3 km/h (1 Bft)
06.06.2019 17:05 17,2 C 19,6 C 17,9 C 17,0 C 16,7 C 0,0 C 78 % 78 % 1013,6 hPa 0,0 l/m 2,9 km/h (1 Bft) SO 135 0 min 13,3 C 16,7 C 1,9 km/h (1 Bft)
06.06.2019 17:10 17,1 C 19,6 C 17,6 C 16,9 C 16,5 C 0,0 C 79 % 79 % 1013,6 hPa 0,0 l/m 2,3 km/h (1 Bft) O-SO 112 0 min 13,4 C 16,5 C 2,7 km/h (1 Bft)
06.06.2019 17:15 16,9 C 19,6 C 17,5 C 16,7 C 16,3 C 0,0 C 80 % 80 % 1013,6 hPa 0,0 l/m 2,3 km/h (1 Bft) S 180 0 min 13,4 C 16,3 C 3,1 km/h (1 Bft)
06.06.2019 17:20 16,7 C 19,5 C 17,3 C 16,6 C 16,4 C 0,0 C 81 % 80 % 1013,6 hPa 0,0 l/m 2,6 km/h (1 Bft) SW 225 0 min 13,4 C 16,4 C 5,0 km/h (1 Bft)
06.06.2019 17:25 16,6 C 19,5 C 17,3 C 16,6 C 16,5 C 0,0 C 82 % 80 % 1013,8 hPa 0,0 l/m 2,7 km/h (1 Bft) S 180 0 min 13,5 C 16,5 C 3,1 km/h (1 Bft)
06.06.2019 17:30 16,5 C 19,5 C 17,2 C 16,6 C 16,6 C 0,1 C 82 % 80 % 1013,8 hPa 0,0 l/m 3,2 km/h (1 Bft) W-SW 247 0 min 13,4 C 16,6 C 1,6 km/h (1 Bft)
06.06.2019 17:35 16,5 C 19,4 C 17,1 C 16,7 C 16,7 C 0,2 C 82 % 81 % 1013,8 hPa 0,0 l/m 3,7 km/h (1 Bft) SW 225 0 min 13,4 C 16,7 C 3,1 km/h (1 Bft)
06.06.2019 17:40 16,4 C 19,4 C 17,1 C 16,6 C 16,6 C 0,2 C 83 % 81 % 1013,8 hPa 0,0 l/m 3,2 km/h (1 Bft) S 180 0 min 13,5 C 16,6 C 0,0 km/h (0 Bft)
06.06.2019 17:45 16,3 C 19,4 C 17,0 C 16,4 C 16,4 C 0,1 C 83 % 81 % 1014,1 hPa 0,0 l/m 3,2 km/h (1 Bft) S 180 0 min 13,4 C 16,4 C 6,4 km/h (2 Bft)
06.06.2019 17:50 16,3 C 19,4 C 16,9 C 16,4 C 16,4 C 0,1 C 83 % 81 % 1014,1 hPa 0,0 l/m 3,5 km/h (1 Bft) W-SW 247 0 min 13,4 C 16,4 C 5,8 km/h (2 Bft)
06.06.2019 17:55 16,3 C 19,3 C 17,0 C 16,9 C 16,9 C 0,6 C 83 % 82 % 1014,1 hPa 0,0 l/m 3,4 km/h (1 Bft) W-SW 247 0 min 13,4 C 16,9 C 8,0 km/h (2 Bft)
06.06.2019 18:00 16,3 C 19,3 C 17,1 C 17,3 C 17,3 C 1,0 C 83 % 81 % 1014,1 hPa 0,0 l/m 3,4 km/h (1 Bft) W-SW 247 0 min 13,4 C 17,3 C 3,5 km/h (1 Bft)
06.06.2019 18:05 16,4 C 19,3 C 17,2 C 18,0 C 18,0 C 1,6 C 83 % 81 % 1014,6 hPa 0,0 l/m 2,9 km/h (1 Bft) S 180 0 min 13,5 C 18,0 C 2,4 km/h (1 Bft)
06.06.2019 18:10 16,4 C 19,3 C 17,5 C 18,5 C 18,5 C 2,1 C 83 % 81 % 1014,6 hPa 0,0 l/m 2,1 km/h (1 Bft) S-SW 202 0 min 13,5 C 18,5 C 3,7 km/h (1 Bft)
06.06.2019 18:15 16,7 C 19,2 C 17,9 C 19,8 C 19,8 C 3,1 C 83 % 79 % 1014,6 hPa 0,0 l/m 2,1 km/h (1 Bft) O-SO 112 0 min 13,8 C 19,8 C 2,7 km/h (1 Bft)
06.06.2019 18:20 16,9 C 19,2 C 18,2 C 20,8 C 20,8 C 3,9 C 84 % 80 % 1014,6 hPa 0,0 l/m 1,8 km/h (1 Bft) NO 45 5 min 14,2 C 20,8 C 4,2 km/h (1 Bft)
06.06.2019 18:25 17,2 C 19,2 C 18,4 C 21,9 C 21,9 C 4,7 C 82 % 78 % 1014,4 hPa 0,0 l/m 2,1 km/h (1 Bft) S 180 5 min 14,1 C 21,9 C 2,4 km/h (1 Bft)
06.06.2019 18:30 17,2 C 19,2 C 18,2 C 21,6 C 21,6 C 4,4 C 81 % 77 % 1014,4 hPa 0,0 l/m 2,6 km/h (1 Bft) W 270 5 min 13,9 C 21,6 C 3,2 km/h (1 Bft)
06.06.2019 18:35 17,2 C 19,1 C 18,0 C 20,5 C 20,5 C 3,3 C 80 % 77 % 1014,4 hPa 0,0 l/m 2,9 km/h (1 Bft) NW 315 5 min 13,7 C 20,5 C 2,6 km/h (1 Bft)
06.06.2019 18:40 17,1 C 19,1 C 17,9 C 19,7 C 19,7 C 2,6 C 80 % 77 % 1014,4 hPa 0,0 l/m 2,7 km/h (1 Bft) SW 225 0 min 13,6 C 19,7 C 3,4 km/h (1 Bft)
06.06.2019 18:45 17,1 C 19,1 C 17,7 C 19,0 C 19,0 C 1,9 C 80 % 77 % 1014,7 hPa 0,0 l/m 2,3 km/h (1 Bft) NW 315 0 min 13,6 C 19,0 C 2,3 km/h (1 Bft)
06.06.2019 18:50 17,1 C 19,1 C 17,7 C 18,7 C 18,7 C 1,6 C 80 % 78 % 1014,7 hPa 0,0 l/m 1,8 km/h (1 Bft) SO 135 0 min 13,6 C 18,7 C 0,0 km/h (0 Bft)
06.06.2019 18:55 17,0 C 19,1 C 17,5 C 18,4 C 18,4 C 1,4 C 80 % 77 % 1014,7 hPa 0,0 l/m 1,6 km/h (1 Bft) S 180 0 min 13,5 C 18,4 C 4,3 km/h (1 Bft)
06.06.2019 19:00 16,9 C 19,1 C 17,5 C 18,1 C 18,1 C 1,2 C 79 % 77 % 1014,7 hPa 0,0 l/m 1,6 km/h (1 Bft) W-SW 247 0 min 13,2 C 18,1 C 2,7 km/h (1 Bft)
06.06.2019 19:05 16,8 C 19,0 C 17,4 C 17,8 C 17,8 C 1,0 C 79 % 77 % 1014,9 hPa 0,0 l/m 1,9 km/h (1 Bft) W-SW 247 0 min 13,1 C 17,8 C 3,4 km/h (1 Bft)
06.06.2019 19:10 16,8 C 19,0 C 17,4 C 17,8 C 17,8 C 1,0 C 79 % 77 % 1014,9 hPa 0,0 l/m 1,3 km/h (1 Bft) O-SO 112 0 min 13,1 C 17,8 C 1,8 km/h (1 Bft)
06.06.2019 19:15 16,9 C 19,0 C 17,3 C 17,7 C 17,7 C 0,8 C 79 % 77 % 1014,9 hPa 0,0 l/m 0,6 km/h (0 Bft) SO 135 0 min 13,2 C 17,7 C 2,6 km/h (1 Bft)
06.06.2019 19:20 16,9 C 19,0 C 17,3 C 17,7 C 17,7 C 0,8 C 79 % 77 % 1014,9 hPa 0,0 l/m 0,6 km/h (0 Bft) W 270 0 min 13,2 C 17,7 C 0,0 km/h (0 Bft)
06.06.2019 19:25 16,8 C 19,0 C 17,3 C 17,6 C 17,6 C 0,8 C 79 % 77 % 1015,0 hPa 0,0 l/m 0,5 km/h (0 Bft) S-SO 157 0 min 13,1 C 17,6 C 0,0 km/h (0 Bft)
06.06.2019 19:30 16,8 C 19,0 C 17,2 C 17,5 C 17,5 C 0,7 C 79 % 77 % 1015,0 hPa 0,0 l/m 0,6 km/h (0 Bft) O-SO 112 0 min 13,1 C 17,5 C 0,0 km/h (0 Bft)
06.06.2019 19:35 16,9 C 18,9 C 17,1 C 17,4 C 17,4 C 0,5 C 79 % 78 % 1015,0 hPa 0,0 l/m 1,0 km/h (0 Bft) NO 45 0 min 13,2 C 17,4 C 3,5 km/h (1 Bft)
06.06.2019 19:40 16,8 C 18,9 C 17,1 C 17,3 C 17,3 C 0,5 C 79 % 77 % 1015,0 hPa 0,0 l/m 1,3 km/h (1 Bft) S-SO 157 0 min 13,1 C 17,3 C 1,8 km/h (1 Bft)
06.06.2019 19:45 16,8 C 18,9 C 17,0 C 17,2 C 17,2 C 0,4 C 78 % 78 % 1015,6 hPa 0,0 l/m 0,8 km/h (0 Bft) S-SO 157 0 min 12,9 C 17,2 C 0,0 km/h (0 Bft)
06.06.2019 19:50 16,7 C 18,9 C 17,0 C 17,1 C 17,1 C 0,4 C 78 % 77 % 1015,6 hPa 0,0 l/m 0,3 km/h (0 Bft) S 180 0 min 12,8 C 17,1 C 0,0 km/h (0 Bft)
06.06.2019 19:55 16,6 C 18,9 C 16,9 C 17,0 C 17,0 C 0,4 C 78 % 77 % 1015,6 hPa 0,0 l/m 0,8 km/h (0 Bft) W 270 0 min 12,7 C 17,0 C 0,0 km/h (0 Bft)
06.06.2019 20:00 16,6 C 18,9 C 16,9 C 16,9 C 16,9 C 0,3 C 78 % 77 % 1015,6 hPa 0,0 l/m 0,8 km/h (0 Bft) SO 135 0 min 12,7 C 16,9 C 0,0 km/h (0 Bft)
06.06.2019 20:05 16,6 C 18,9 C 16,9 C 16,9 C 16,9 C 0,3 C 78 % 78 % 1016,0 hPa 0,0 l/m 0,2 km/h (0 Bft) SW 225 0 min 12,7 C 16,9 C 0,0 km/h (0 Bft)
06.06.2019 20:10 16,7 C 18,8 C 16,8 C 16,8 C 16,8 C 0,1 C 78 % 78 % 1016,0 hPa 0,0 l/m 0,0 km/h (0 Bft) S-SW 202 0 min 12,8 C 16,8 C 0,0 km/h (0 Bft)
06.06.2019 20:15 16,6 C 18,8 C 16,7 C 16,7 C 16,7 C 0,1 C 78 % 77 % 1016,0 hPa 0,0 l/m 0,5 km/h (0 Bft) SW 225 0 min 12,7 C 16,7 C 4,7 km/h (1 Bft)
06.06.2019 20:20 16,5 C 18,8 C 16,7 C 16,6 C 16,6 C 0,1 C 78 % 77 % 1016,0 hPa 0,0 l/m 0,5 km/h (0 Bft) S 180 0 min 12,6 C 16,6 C 0,0 km/h (0 Bft)
06.06.2019 20:25 16,5 C 18,8 C 16,6 C 16,5 C 16,5 C 0,0 C 78 % 78 % 1016,2 hPa 0,0 l/m 0,5 km/h (0 Bft) NW 315 0 min 12,6 C 16,5 C 0,0 km/h (0 Bft)
06.06.2019 20:30 16,5 C 18,8 C 16,5 C 16,5 C 16,4 C 0,0 C 78 % 77 % 1016,2 hPa 0,0 l/m 0,2 km/h (0 Bft) S 180 0 min 12,6 C 16,4 C 0,0 km/h (0 Bft)
06.06.2019 20:35 16,4 C 18,8 C 16,5 C 16,4 C 16,3 C 0,0 C 78 % 78 % 1016,2 hPa 0,0 l/m 0,2 km/h (0 Bft) O-NO 67 0 min 12,6 C 16,3 C 0,0 km/h (0 Bft)
06.06.2019 20:40 16,4 C 18,8 C 16,5 C 16,4 C 16,3 C 0,0 C 78 % 78 % 1016,2 hPa 0,0 l/m 0,2 km/h (0 Bft) S-SW 202 0 min 12,6 C 16,3 C 0,0 km/h (0 Bft)
06.06.2019 20:45 16,3 C 18,8 C 16,5 C 16,2 C 16,1 C 0,0 C 78 % 78 % 1016,4 hPa 0,0 l/m 0,2 km/h (0 Bft) S-SW 202 0 min 12,5 C 16,1 C 0,0 km/h (0 Bft)
06.06.2019 20:50 16,3 C 18,8 C 16,4 C 16,2 C 16,1 C 0,0 C 78 % 79 % 1016,4 hPa 0,0 l/m 0,2 km/h (0 Bft) SW 225 0 min 12,5 C 16,1 C 0,0 km/h (0 Bft)
06.06.2019 20:55 16,2 C 18,7 C 16,3 C 16,2 C 16,1 C 0,0 C 78 % 78 % 1016,4 hPa 0,0 l/m 0,2 km/h (0 Bft) S-SW 202 0 min 12,4 C 16,1 C 0,0 km/h (0 Bft)
06.06.2019 21:00 16,3 C 18,7 C 16,3 C 16,2 C 16,0 C 0,0 C 78 % 78 % 1016,4 hPa 0,0 l/m 0,2 km/h (0 Bft) SW 225 0 min 12,5 C 16,0 C 0,0 km/h (0 Bft)
06.06.2019 21:05 16,1 C 18,7 C 16,3 C 16,1 C 16,0 C 0,0 C 78 % 78 % 1016,7 hPa 0,0 l/m 0,2 km/h (0 Bft) S-SW 202 0 min 12,3 C 16,0 C 0,0 km/h (0 Bft)
06.06.2019 21:10 16,1 C 18,7 C 16,3 C 16,0 C 15,9 C 0,0 C 78 % 78 % 1016,7 hPa 0,0 l/m 0,2 km/h (0 Bft) S 180 0 min 12,3 C 15,9 C 0,0 km/h (0 Bft)
06.06.2019 21:15 16,0 C 18,7 C 16,2 C 16,0 C 15,9 C 0,0 C 78 % 78 % 1016,7 hPa 0,0 l/m 0,2 km/h (0 Bft) S-SW 202 0 min 12,2 C 15,9 C 0,0 km/h (0 Bft)
06.06.2019 21:20 16,0 C 18,7 C 16,2 C 15,9 C 15,8 C 0,0 C 79 % 78 % 1016,7 hPa 0,0 l/m 0,0 km/h (0 Bft) W-SW 247 0 min 12,4 C 15,8 C 0,0 km/h (0 Bft)
06.06.2019 21:25 16,1 C 18,7 C 16,1 C 16,0 C 15,8 C 0,0 C 79 % 79 % 1016,8 hPa 0,0 l/m 0,2 km/h (0 Bft) W 270 0 min 12,5 C 15,8 C 0,0 km/h (0 Bft)
06.06.2019 21:30 16,0 C 18,6 C 16,1 C 15,9 C 15,7 C 0,0 C 79 % 79 % 1016,8 hPa 0,0 l/m 0,0 km/h (0 Bft) S 180 0 min 12,4 C 15,7 C 0,0 km/h (0 Bft)
06.06.2019 21:35 16,0 C 18,6 C 16,1 C 15,9 C 15,7 C 0,0 C 79 % 79 % 1016,8 hPa 0,0 l/m 0,2 km/h (0 Bft) W-SW 247 0 min 12,4 C 15,7 C 0,0 km/h (0 Bft)
06.06.2019 21:40 15,9 C 18,6 C 16,1 C 15,8 C 15,7 C 0,0 C 79 % 79 % 1016,8 hPa 0,0 l/m 0,2 km/h (0 Bft) SW 225 0 min 12,3 C 15,7 C 0,0 km/h (0 Bft)
06.06.2019 21:45 15,9 C 18,6 C 16,0 C 15,8 C 15,7 C 0,0 C 79 % 79 % 1016,9 hPa 0,0 l/m 0,3 km/h (0 Bft) W 270 0 min 12,3 C 15,7 C 1,8 km/h (1 Bft)
06.06.2019 21:50 15,9 C 18,6 C 15,9 C 15,8 C 15,7 C 0,0 C 79 % 80 % 1016,9 hPa 0,0 l/m 0,3 km/h (0 Bft) S 180 0 min 12,3 C 15,7 C 1,6 km/h (1 Bft)
06.06.2019 21:55 15,9 C 18,6 C 15,9 C 15,8 C 15,6 C 0,0 C 80 % 81 % 1016,9 hPa 0,0 l/m 0,5 km/h (0 Bft) W 270 0 min 12,5 C 15,6 C 0,0 km/h (0 Bft)
06.06.2019 22:00 15,9 C 18,6 C 15,9 C 15,8 C 15,6 C 0,0 C 80 % 81 % 1016,9 hPa 0,0 l/m 0,5 km/h (0 Bft) O 90 0 min 12,5 C 15,6 C 2,3 km/h (1 Bft)
06.06.2019 22:05 15,9 C 18,6 C 15,7 C 15,8 C 15,6 C 0,0 C 81 % 81 % 1017,4 hPa 0,0 l/m 0,3 km/h (0 Bft) NW 315 0 min 12,6 C 15,6 C 0,0 km/h (0 Bft)
06.06.2019 22:10 15,9 C 18,6 C 15,7 C 15,8 C 15,5 C 0,0 C 81 % 81 % 1017,4 hPa 0,0 l/m 0,6 km/h (0 Bft) N-NO 22 0 min 12,6 C 15,5 C 0,0 km/h (0 Bft)
06.06.2019 22:15 15,8 C 18,6 C 15,6 C 15,7 C 15,4 C 0,0 C 81 % 81 % 1017,4 hPa 0,0 l/m 1,0 km/h (0 Bft) N 360 0 min 12,5 C 15,4 C 1,9 km/h (1 Bft)
06.06.2019 22:20 15,7 C 18,6 C 15,5 C 15,6 C 15,4 C 0,0 C 81 % 81 % 1017,4 hPa 0,0 l/m 1,0 km/h (0 Bft) NW 315 0 min 12,4 C 15,4 C 0,0 km/h (0 Bft)
06.06.2019 22:25 15,6 C 18,6 C 15,5 C 15,5 C 15,3 C 0,0 C 81 % 82 % 1018,4 hPa 0,0 l/m 1,0 km/h (0 Bft) W 270 0 min 12,3 C 15,3 C 5,0 km/h (1 Bft)
06.06.2019 22:30 15,6 C 18,6 C 15,4 C 15,5 C 15,3 C 0,0 C 81 % 81 % 1018,4 hPa 0,0 l/m 1,0 km/h (0 Bft) NW 315 0 min 12,3 C 15,3 C 0,0 km/h (0 Bft)
06.06.2019 22:35 15,6 C 18,6 C 15,4 C 15,5 C 15,3 C 0,0 C 81 % 81 % 1018,4 hPa 0,0 l/m 1,0 km/h (0 Bft) NW 315 0 min 12,3 C 15,3 C 2,1 km/h (1 Bft)
06.06.2019 22:40 15,5 C 18,6 C 15,3 C 15,4 C 15,2 C 0,0 C 81 % 81 % 1018,4 hPa 0,0 l/m 0,5 km/h (0 Bft) SW 225 0 min 12,3 C 15,2 C 0,0 km/h (0 Bft)
06.06.2019 22:45 15,5 C 18,6 C 15,3 C 15,4 C 15,2 C 0,0 C 81 % 81 % 1018,2 hPa 0,0 l/m 0,8 km/h (0 Bft) S-SW 202 0 min 12,3 C 15,2 C 0,0 km/h (0 Bft)
06.06.2019 22:50 15,5 C 18,6 C 15,3 C 15,4 C 15,2 C 0,0 C 81 % 82 % 1018,2 hPa 0,0 l/m 0,3 km/h (0 Bft) S-SW 202 0 min 12,3 C 15,2 C 0,0 km/h (0 Bft)
06.06.2019 22:55 15,5 C 18,6 C 15,4 C 15,4 C 15,2 C 0,0 C 82 % 82 % 1018,2 hPa 0,0 l/m 0,2 km/h (0 Bft) S-SW 202 0 min 12,4 C 15,2 C 0,0 km/h (0 Bft)
06.06.2019 23:00 15,5 C 18,6 C 15,4 C 15,4 C 15,1 C 0,0 C 82 % 83 % 1018,2 hPa 0,0 l/m 0,0 km/h (0 Bft) S 180 0 min 12,4 C 15,1 C 0,0 km/h (0 Bft)
06.06.2019 23:05 15,5 C 18,6 C 15,4 C 15,3 C 14,9 C 0,0 C 82 % 83 % 1018,2 hPa 0,0 l/m 0,0 km/h (0 Bft) S 180 0 min 12,4 C 14,9 C 0,0 km/h (0 Bft)
06.06.2019 23:10 15,5 C 18,6 C 15,4 C 15,3 C 14,8 C 0,0 C 83 % 84 % 1018,2 hPa 0,0 l/m 0,0 km/h (0 Bft) S-SW 202 0 min 12,6 C 14,8 C 0,0 km/h (0 Bft)
06.06.2019 23:15 15,3 C 18,6 C 15,3 C 15,0 C 14,5 C 0,0 C 83 % 84 % 1018,2 hPa 0,0 l/m 0,0 km/h (0 Bft) W-SW 247 0 min 12,4 C 14,5 C 0,0 km/h (0 Bft)
06.06.2019 23:20 15,3 C 18,7 C 15,2 C 15,0 C 14,4 C 0,0 C 83 % 84 % 1018,2 hPa 0,0 l/m 0,0 km/h (0 Bft) N-NO 22 0 min 12,4 C 14,4 C 0,0 km/h (0 Bft)
06.06.2019 23:25 15,2 C 18,7 C 15,1 C 14,9 C 14,3 C 0,0 C 84 % 86 % 1018,4 hPa 0,0 l/m 0,3 km/h (0 Bft) S-SO 157 0 min 12,5 C 14,3 C 0,0 km/h (0 Bft)
06.06.2019 23:30 15,2 C 18,8 C 14,9 C 14,9 C 14,2 C 0,0 C 84 % 86 % 1018,4 hPa 0,0 l/m 0,3 km/h (0 Bft) S-SO 157 0 min 12,5 C 14,2 C 0,0 km/h (0 Bft)
06.06.2019 23:35 15,1 C 18,8 C 14,8 C 14,8 C 14,1 C 0,0 C 84 % 87 % 1018,4 hPa 0,0 l/m 0,2 km/h (0 Bft) W-SW 247 0 min 12,4 C 14,1 C 0,0 km/h (0 Bft)
06.06.2019 23:40 14,9 C 18,7 C 14,7 C 14,6 C 14,0 C 0,0 C 84 % 87 % 1018,4 hPa 0,0 l/m 0,2 km/h (0 Bft) SW 225 0 min 12,2 C 14,0 C 0,0 km/h (0 Bft)
06.06.2019 23:45 14,7 C 18,7 C 14,7 C 14,4 C 13,8 C 0,0 C 85 % 87 % 1018,1 hPa 0,0 l/m 0,0 km/h (0 Bft) S-SO 157 0 min 12,2 C 13,8 C 0,0 km/h (0 Bft)
06.06.2019 23:50 14,6 C 18,6 C 14,5 C 14,3 C 13,7 C 0,0 C 85 % 89 % 1018,1 hPa 0,0 l/m 0,0 km/h (0 Bft) S-SO 157 0 min 12,1 C 13,7 C 0,0 km/h (0 Bft)
06.06.2019 23:55 14,5 C 18,6 C 14,4 C 14,2 C 13,6 C 0,0 C 85 % 90 % 1018,1 hPa 0,0 l/m 0,2 km/h (0 Bft) SW 225 0 min 12,0 C 13,6 C 0,0 km/h (0 Bft)
_ Min-Zeit 23:55 21:30 23:55 23:55 23:55 00:00 13:35 13:30 03:05 - 00:00 - - - 23:55 23:55 00:00
Minimum _ 14,5 C 18,6 C 14,4 C 14,2 C 13,6 C 0,0 C 55 % 56 % 1006,2 hPa - 0,0 km/h (0 Bft) - - - 12,0 C 13,6 C 0,0 km/h (0 Bft)
_ Max-Zeit 13:15 00:00 13:15 10:40 10:40 07:30 06:55 23:55 22:25 00:00 13:20 - - 07:05 10:25 10:40 16:05
Maximum _ 26,8 C 20,2 C 26,3 C 35,1 C 35,1 C 10,7 C 88 % 90 % 1018,4 hPa 0,0 l/m 5,0 km/h
SW (1 Bft)
- - 5 min 18,8 C 35,1 C 19,2 km/h
W (3 Bft)
Durchschnitt _ 19,4 C 19,3 C 19,1 C 21,4 C 21,1 C 2,1 C 76 % 77 % 1010,7 hPa #0,0 l/m 1,3 km/h (1 Bft) S - #5:45 h 14,9 C 21,1 C 1,9 km/h (1 Bft)
2019 www.wetterstation-wechselburg.de